Weather History for Dubuque, IA

Change the Weather History Date:

Wednesday, October 31, 2012

  Actual Average Record
Temperature  
Mean Temperature 38 °F 44 °F  
Max Temperature 50 °F 53 °F 84 °F (1950)
Min Temperature 26 °F 35 °F 19 °F (1954)
Degree Days  
Heating Degree Days 27 21  
Month to date heating degree days 533 471  
Since 1 July heating degree days 749 649  
Cooling Degree Days 0 0  
Month to date cooling degree days 5 6  
Year to date cooling degree days 907 643  
Moisture  
Dew Point 19 °F    
Average Humidity 54    
Maximum Humidity 81    
Minimum Humidity 26    
Precipitation  
Precipitation 0.00 in 0.08 in 1.71 in (1960)
Month to date precipitation 2.62 2.66  
Year to date precipitation 20.54 32.10  
Snow  
Snow 0.00 in 0.00 in - ()
Month to date snowfall 0.0 T  
Since 1 July snowfall 0.0 T  
Since 1 September snowfall 0.0 T  
Snow Depth 0.00 in    
Sea Level Pressure  
Sea Level Pressure 29.95 in    
Wind  
Wind Speed 12 mph (NNW)    
Max Wind Speed 21 mph    
Max Gust Speed 24 mph    
Visibility 10 miles    
Events      
T = Trace of Precipitation, MM = Missing Value Source: NWS Daily Summary

Daily Weather History Graph

Daily Weather History Graph

Search for Another Location

Airport:

Trip Planner

Search our weather history database for the weather conditions in past years. The results will help you decide how hot, cold, wet, or windy it might be!

Date:

Astronomy

Oct. 31, 2012 Rise Set
Actual Time 7:35 AM CDT 5:56 PM CDT
Civil Twilight 7:06 AM CDT 6:25 PM CDT
Nautical Twilight 6:33 AM CDT 6:58 PM CDT
Astronomical Twilight 6:00 AM CDT 7:31 PM CDT
Moon 7:05 PM CDT 9:18 AM CDT
Length of Visible Light 11h 19m
Length of Day
10h 21m
Full, 97% of the Moon is Illuminated
Oct 31
Full
Nov 6
Last Quarter
Nov 13
New
Nov 20
First Quarter
Nov 28
Full

Hourly Weather History & Observations

Time (CDT) Temp. Windchill Dew Point Humidity Pressure Visibility Wind Dir Wind Speed Gust Speed Precip Events Conditions
12:53 AM 34.0 °F 25.0 °F 21.9 °F 61% 29.94 in 10.0 mi North 12.7 mph - N/A   Clear
1:53 AM 32.0 °F 22.1 °F 21.9 °F 66% 29.95 in 10.0 mi North 13.8 mph - N/A   Clear
2:53 AM 30.0 °F 20.0 °F 21.9 °F 72% 29.95 in 10.0 mi North 12.7 mph - N/A   Clear
3:53 AM 28.9 °F 19.8 °F 21.9 °F 75% 29.95 in 10.0 mi North 10.4 mph - N/A   Clear
4:53 AM 28.0 °F 20.8 °F 21.0 °F 75% 29.95 in 10.0 mi North 6.9 mph - N/A   Clear
5:53 AM 28.0 °F 18.1 °F 21.0 °F 75% 29.95 in 10.0 mi North 11.5 mph - N/A   Clear
6:53 AM 28.0 °F 17.5 °F 21.0 °F 75% 29.96 in 10.0 mi NNW 12.7 mph - N/A   Clear
7:53 AM 26.1 °F 17.6 °F 21.0 °F 81% 29.96 in 10.0 mi North 8.1 mph - N/A   Clear
8:53 AM 30.0 °F 20.0 °F 23.0 °F 75% 29.96 in 10.0 mi NNW 12.7 mph - N/A   Clear
9:53 AM 34.0 °F 24.2 °F 24.1 °F 67% 29.96 in 10.0 mi North 15.0 mph - N/A   Clear
10:53 AM 37.9 °F 30.0 °F 23.0 °F 55% 29.96 in 10.0 mi North 12.7 mph - N/A   Clear
11:53 AM 41.0 °F 32.2 °F 19.9 °F 43% 29.96 in 10.0 mi North 18.4 mph 23.0 mph N/A   Clear
12:53 PM 45.0 °F 37.4 °F 19.0 °F 36% 29.95 in 10.0 mi NNW 18.4 mph - N/A   Clear
1:53 PM 46.0 °F 39.6 °F 17.1 °F 31% 29.93 in 10.0 mi NNW 15.0 mph - N/A   Clear
2:53 PM 48.9 °F - 15.1 °F 26% 29.92 in 10.0 mi NNW 17.3 mph - N/A   Clear
3:53 PM 48.9 °F - 15.1 °F 26% 29.92 in 10.0 mi NNW 17.3 mph 21.9 mph N/A   Clear
4:53 PM 46.9 °F - 17.1 °F 30% 29.93 in 10.0 mi NW 13.8 mph - N/A   Clear
5:53 PM 44.1 °F 38.6 °F 16.0 °F 32% 29.94 in 10.0 mi NW 10.4 mph - N/A   Clear
6:53 PM 39.9 °F 33.9 °F 17.1 °F 40% 29.95 in 10.0 mi NW 9.2 mph - N/A   Clear
7:53 PM 39.9 °F 33.4 °F 17.1 °F 40% 29.96 in 10.0 mi NW 10.4 mph - N/A   Clear
8:53 PM 37.0 °F 31.0 °F 17.1 °F 44% 29.96 in 10.0 mi NW 8.1 mph - N/A   Clear
9:53 PM 37.0 °F 29.8 °F 17.1 °F 44% 29.95 in 10.0 mi NW 10.4 mph - N/A   Clear
10:53 PM 37.0 °F 29.8 °F 16.0 °F 42% 29.94 in 10.0 mi NNW 10.4 mph - N/A   Clear
11:53 PM 37.9 °F 30.9 °F 16.0 °F 41% 29.94 in 10.0 mi NW 10.4 mph - N/A   Clear